Pamplona, Spain

11:50 AM CEST on June 26, 2017 (GMT +0200)
Pamplona

Weather History for LEPP - October, 2012

Change the Weather History Date:

Monday, October 29, 2012

  Actual Average Record
Temperature  
Mean Temperature 44 °F -  
Max Temperature 57 °F 52 °F 77 °F (2001)
Min Temperature 32 °F 40 °F 32 °F (2012)
Degree Days  
Heating Degree Days 20    
Moisture  
Dew Point 33 °F    
Average Humidity 68    
Maximum Humidity 100    
Minimum Humidity 33    
Precipitation  
Precipitation 0.00 in - - ()
Sea Level Pressure  
Sea Level Pressure 29.93 in    
Wind  
Wind Speed 2 mph ()    
Max Wind Speed 8 mph    
Max Gust Speed -    
Visibility 6.2 miles    
Events      
Averages and records for this station are not official NWS values.
T = Trace of Precipitation, MM = Missing Value Source: Averaged Metar Reports

Daily Weather History Graph

Daily Weather History Graph

Search for Another Location

Airport or City:

Trip Planner

Search our weather history database for the weather conditions in past years. The results will help you decide how hot, cold, wet, or windy it might be!

Date:

Astronomy

Oct. 29, 2012 Rise Set
Actual Time 7:37 AM CET 6:02 PM CET
Civil Twilight 7:07 AM CET 6:31 PM CET
Nautical Twilight 6:34 AM CET 7:05 PM CET
Astronomical Twilight 6:01 AM CET 7:37 PM CET
Moon 5:45 PM CET (10/29) 7:13 AM CET (10/29)
Length of Visible Light 11h 23m
Length of Day
10h 25m
Full, 100% of the Moon is Illuminated
Oct 29
Full
Oct 29
Full
Nov 7
Last Quarter
Nov 13
New
Nov 20
First Quarter

Hourly Weather History & Observations

Time (CET) Temp. Windchill Dew Point Humidity Pressure Visibility Wind Dir Wind Speed Gust Speed Precip Events Conditions
12:00 AM 37.4 °F 33.8 °F 35.6 °F 93% 30.09 in 6.2 mi NW 4.6 mph - N/A   Partly Cloudy
5:30 AM 33.8 °F - 33.8 °F 100% 30.01 in - Calm Calm - N/A   Clear
6:00 AM 32.0 °F - 32.0 °F 100% 30.01 in - Calm Calm - N/A   Clear
6:30 AM 32.0 °F - 32.0 °F 100% 30.01 in - Calm Calm - N/A   Clear
7:00 AM 32.0 °F - 32.0 °F 100% 30.01 in - Calm Calm - N/A   Clear
7:30 AM 32.0 °F - 32.0 °F 100% 30.01 in - East 2.3 mph - N/A   Clear
8:00 AM 32.0 °F - 32.0 °F 100% 30.01 in - Calm Calm - N/A   Clear
8:30 AM 33.8 °F - 32.0 °F 93% 30.01 in - Variable 2.3 mph - N/A   Clear
9:00 AM 35.6 °F - 33.8 °F 93% 30.01 in - Calm Calm - N/A   Clear
9:30 AM 37.4 °F - 33.8 °F 87% 30.01 in - Variable 2.3 mph - N/A   Clear
10:00 AM 41.0 °F - 33.8 °F 76% 30.01 in - Calm Calm - N/A   Clear
10:30 AM 42.8 °F - 33.8 °F 70% 29.98 in - Calm Calm - N/A   Clear
11:00 AM 42.8 °F - 33.8 °F 70% 29.98 in - Calm Calm - N/A   Clear
11:30 AM 44.6 °F - 32.0 °F 61% 29.98 in - Calm Calm - N/A   Clear
12:00 PM 46.4 °F - 32.0 °F 57% 29.98 in - Calm Calm - N/A   Clear
12:30 PM 48.2 °F - 26.6 °F 43% 29.95 in - Variable 1.2 mph - N/A   Clear
1:00 PM 50.0 °F - 28.4 °F 43% 29.95 in - ESE 1.2 mph - N/A   Clear
1:30 PM 53.6 °F - 24.8 °F 33% 29.92 in - South 2.3 mph - N/A   Clear
2:00 PM 55.4 °F - 28.4 °F 36% 29.92 in - SSE 1.2 mph - N/A   Clear
2:30 PM 55.4 °F - 32.0 °F 41% 29.89 in - SE 4.6 mph - N/A   Clear
3:00 PM 57.2 °F - 32.0 °F 38% 29.89 in - South 5.8 mph - N/A   Clear
3:30 PM 57.2 °F - 30.2 °F 36% 29.89 in - SSW 5.8 mph - N/A   Clear
4:00 PM 57.2 °F - 32.0 °F 38% 29.86 in - South 3.5 mph - N/A   Clear
4:30 PM 55.4 °F - 33.8 °F 44% 29.86 in - SSW 4.6 mph - N/A   Clear
5:00 PM 55.4 °F - 33.8 °F 44% 29.86 in - South 3.5 mph - N/A   Clear
5:30 PM 53.6 °F - 33.8 °F 47% 29.86 in - Variable 2.3 mph - N/A   Clear
6:00 PM 51.8 °F - 35.6 °F 54% 29.86 in - South 4.6 mph - N/A   Clear
6:30 PM 48.2 °F - 37.4 °F 66% 29.86 in - South 5.8 mph - N/A   Clear
7:00 PM 48.2 °F - 33.8 °F 58% 29.86 in - South 4.6 mph - N/A   Clear
7:30 PM 46.4 °F 42.4 °F 33.8 °F 62% 29.86 in - South 8.1 mph - N/A   Clear
8:00 PM 44.6 °F 42.2 °F 33.8 °F 66% 29.86 in - SSE 4.6 mph - N/A   Clear
8:30 PM 44.6 °F 43.1 °F 35.6 °F 71% 29.86 in - ESE 3.5 mph - N/A   Clear
9:30 PM 42.8 °F - 35.6 °F 76% 29.86 in - Variable 1.2 mph - N/A   Clear
10:00 PM 41.0 °F - 35.6 °F 81% 29.86 in - Calm Calm - N/A   Clear
10:30 PM 41.0 °F - 35.6 °F 81% 29.86 in - SSW 1.2 mph - N/A   Clear
11:00 PM 39.2 °F - 35.6 °F 87% 29.86 in - Calm Calm - N/A   Clear
11:30 PM 37.4 °F - 33.8 °F 87% 29.86 in - East 1.2 mph - N/A   Clear